N3TTT-13 Weather Reports


time (UTC)temp
F
wind
direction
speed
knots
gust
knots
rain 1hr
in
rain 24hr
in
rain mn
in
humidity
%
barometer
mb
20260504214256 73 251 0.9 1.7 0.00 0.00 0.00 37 1011.1
20260504213753 73 219 0.9 1.7 0.00 0.00 0.00 38 1010.9
20260504213249 73 314 0.9 1.7 0.00 0.00 0.00 40 1010.9
20260504212746 73 110 2.6 2.6 0.00 0.00 0.00 39 1011.0
20260504212243 73 202 1.7 2.6 0.00 0.00 0.00 37 1011.0
20260504211740 74 232 0.9 1.7 0.00 0.00 0.00 38 1011.0
20260504211236 74 309 0.0 0.9 0.00 0.00 0.00 40 1011.0
20260504210734 74 268 0.0 0.0 0.00 0.00 0.00 38 1010.9
20260504210231 74 235 1.7 1.7 0.00 0.00 0.00 38 1011.1
20260504205728 73 197 1.7 2.6 0.00 0.00 0.00 40 1011.1
20260504205226 73 231 0.9 0.9 0.00 0.00 0.00 38 1011.1
20260504204724 73 255 0.0 0.0 0.00 0.00 0.00 38 1010.9
20260504204222 74 253 1.7 2.6 0.00 0.00 0.00 38 1011.1
20260504203721 74 119 1.7 5.2 0.00 0.00 0.00 37 1011.5
20260504203218 74 278 1.7 2.6 0.00 0.00 0.00 38 1011.4
20260504202718 74 256 1.7 1.7 0.00 0.00 0.00 37 1011.2
20260504202215 74 210 2.6 2.6 0.00 0.00 0.00 38 1011.3
20260504201712 74 248 1.7 1.7 0.00 0.00 0.00 37 1011.5
20260504201209 74 91 0.9 1.7 0.00 0.00 0.00 37 1011.6
20260504200707 74 268 2.6 2.6 0.00 0.00 0.00 37 1011.5
20260504200203 74 56 2.6 4.3 0.00 0.00 0.00 37 1011.7
20260504195659 74 163 3.5 5.2 0.00 0.00 0.00 36 1011.7
20260504195155 74 143 0.9 0.9 0.00 0.00 0.00 37 1011.7
20260504194653 74 83 0.9 1.7 0.00 0.00 0.00 36 1011.7
20260504194148 74 253 2.6 2.6 0.00 0.00 0.00 35 1011.7
20260504193645 74 334 1.7 1.7 0.00 0.00 0.00 38 1011.9
20260504193143 75 212 0.9 1.7 0.00 0.00 0.00 36 1011.9
20260504192641 75 265 0.9 1.7 0.00 0.00 0.00 38 1011.9
20260504192139 75 159 2.6 2.6 0.00 0.00 0.00 35 1012.0
20260504191637 74 265 0.9 0.9 0.00 0.00 0.00 36 1012.0
20260504191133 76 153 2.6 4.3 0.00 0.00 0.00 33 1012.1
20260504190629 77 10 0.9 0.9 0.00 0.00 0.00 35 1012.0
20260504190126 76 304 0.0 0.0 0.00 0.00 0.00 36 1012.0
20260504185622 75 278 1.7 2.6 0.00 0.00 0.00 37 1012.1
20260504185119 74 278 0.0 0.0 0.00 0.00 0.00 36 1012.5
20260504184615 74 261 2.6 2.6 0.00 0.00 0.00 36 1012.3
20260504184110 74 301 0.9 1.7 0.00 0.00 0.00 35 1012.5
20260504183607 75 277 0.0 0.9 0.00 0.00 0.00 37 1012.5
20260504183105 75 273 0.9 0.9 0.00 0.00 0.00 34 1012.5
20260504182602 75 271 1.7 1.7 0.00 0.00 0.00 34 1012.7
20260504182059 74 291 1.7 1.7 0.00 0.00 0.00 34 1012.6
20260504181556 75 246 2.6 2.6 0.00 0.00 0.00 35 1012.7
20260504181054 75 272 0.9 0.9 0.00 0.00 0.00 34 1012.9
20260504180553 74 228 1.7 1.7 0.00 0.00 0.00 35 1012.7
20260504180052 74 327 0.9 0.9 0.00 0.00 0.00 35 1012.7
20260504175548 74 250 0.9 1.7 0.00 0.00 0.00 35 1012.7
20260504175045 74 182 6.1 7.0 0.00 0.00 0.00 33 1012.7
20260504174543 74 264 1.7 1.7 0.00 0.00 0.00 34 1012.8
20260504174040 74 34 0.9 0.9 0.00 0.00 0.00 36 1012.9
20260504173537 74 314 0.9 1.7 0.00 0.00 0.00 40 1013.2
20260504173034 72 21 0.9 1.7 0.00 0.00 0.00 39 1013.1
20260504172530 73 254 0.9 1.7 0.00 0.00 0.00 35 1013.3
20260504172027 73 233 1.7 2.6 0.00 0.00 0.00 37 1013.5
20260504171524 73 310 2.6 2.6 0.00 0.00 0.00 35 1013.3
20260504171021 72 244 0.9 1.7 0.00 0.00 0.00 35 1013.5
20260504170516 73 280 0.9 2.6 0.00 0.00 0.00 34 1013.5
20260504160437 72 113 2.6 2.6 0.00 0.00 0.00 38 1014.2
20260504150900 69 249 0.0 0.0 0.00 0.00 0.00 48 1014.5
20260504150357 69 268 0.0 0.0 0.00 0.00 0.00 45 1014.5
20260504141327 67 249 1.7 1.7 0.00 0.00 0.00 53 1014.8
20260504140823 66 150 1.7 2.6 0.00 0.00 0.00 53 1014.7
20260504140319 65 261 0.9 1.7 0.00 0.00 0.00 54 1014.9
20260504130748 62 351 2.6 4.3 0.00 0.00 0.00 66 1015.6
20260504130244 62 262 1.7 2.6 0.00 0.00 0.00 67 1015.5
20260504120208 57 239 0.0 0.9 0.00 0.00 0.00 80 1016.0
20260504110635 51 276 0.0 0.0 0.00 0.00 0.00 87 1016.0
20260504110131 51 260 0.0 0.0 0.00 0.00 0.00 87 1016.0
20260504100551 49 272 0.0 0.9 0.00 0.00 0.00 87 1016.0
20260504081945 47 139 0.9 1.7 0.00 0.00 0.00 85 1016.1
20260504081442 47 253 0.0 0.0 0.00 0.00 0.00 84 1016.3
20260504080938 47 241 0.9 0.9 0.00 0.00 0.00 84 1016.2
20260504080435 47 260 2.6 2.6 0.00 0.00 0.00 84 1016.2
20260504070403 47 239 0.9 0.9 0.00 0.00 0.00 77 1016.2
20260504050750 46 244 0.0 0.0 0.00 0.00 0.00 72 1016.3
20260504050248 46 257 0.0 0.0 0.00 0.00 0.00 73 1016.3
20260504045745 45 257 0.0 0.0 0.00 0.00 0.00 74 1016.4
20260504045239 45 256 0.0 0.0 0.00 0.00 0.00 74 1016.5
20260504044737 45 266 0.0 0.0 0.00 0.00 0.00 76 1016.4
20260504044234 45 271 0.0 0.0 0.00 0.00 0.00 74 1016.1
20260504043731 45 267 0.0 0.0 0.00 0.00 0.00 74 1016.2
20260504043228 45 273 0.0 0.0 0.00 0.00 0.00 73 1016.2
20260504042726 45 286 0.0 0.0 0.00 0.00 0.00 74 1016.1
20260504042222 45 261 0.0 0.0 0.00 0.00 0.00 73 1016.2
20260504041718 45 267 0.0 0.0 0.00 0.00 0.00 73 1016.1
20260504041214 46 275 0.0 0.0 0.00 0.00 0.00 73 1016.1
20260504040711 45 231 0.0 0.0 0.00 0.00 0.00 72 1016.0
20260504040208 45 267 0.0 0.0 0.00 0.00 0.00 74 1016.0
20260504035704 45 274 0.0 0.0 0.00 0.00 0.00 72 1015.9
20260504035202 45 293 0.0 0.0 0.00 0.00 0.00 72 1015.9
20260504034659 46 258 0.0 0.0 0.00 0.00 0.00 72 1016.0
20260504034156 46 241 0.9 0.9 0.00 0.00 0.00 71 1015.8
20260504033654 46 257 0.0 0.0 0.00 0.00 0.00 71 1015.9
20260504033151 46 260 0.0 0.0 0.00 0.00 0.00 70 1015.9
20260504032647 46 262 0.0 0.0 0.00 0.00 0.00 69 1015.8
20260504032145 46 262 0.0 0.0 0.00 0.00 0.00 69 1015.6
20260504031642 46 258 0.0 0.0 0.00 0.00 0.00 68 1015.5
20260504031138 46 251 0.0 0.0 0.00 0.00 0.00 67 1015.6
20260504030634 46 254 0.0 0.0 0.00 0.00 0.00 67 1015.5
20260504030131 46 254 0.0 0.0 0.00 0.00 0.00 66 1015.6
20260504025628 47 252 0.0 0.0 0.00 0.00 0.00 66 1015.7
20260504025125 47 241 0.0 0.0 0.00 0.00 0.00 65 1015.7
20260504024622 47 251 0.0 0.0 0.00 0.00 0.00 65 1015.6
20260504024119 47 243 0.0 0.0 0.00 0.00 0.00 64 1015.8
20260504023615 47 259 0.0 0.0 0.00 0.00 0.00 64 1015.6
20260504023111 47 255 0.0 0.0 0.00 0.00 0.00 65 1015.8
20260504022608 47 257 0.0 0.0 0.00 0.00 0.00 64 1015.5
20260504022104 47 259 0.0 0.0 0.00 0.00 0.00 66 1015.7
20260504021602 47 234 1.7 2.6 0.00 0.00 0.00 65 1015.8
20260504021059 47 241 0.0 0.0 0.00 0.00 0.00 65 1015.7
20260504020555 47 258 0.0 0.0 0.00 0.00 0.00 66 1015.5
20260504020052 48 264 0.0 0.0 0.00 0.00 0.00 65 1015.4
20260504015548 48 256 0.0 0.0 0.00 0.00 0.00 63 1015.5
20260504015044 48 255 0.0 0.0 0.00 0.00 0.00 62 1015.7
20260504014541 48 258 0.0 0.0 0.00 0.00 0.00 62 1015.6
20260504014038 48 255 0.0 0.0 0.00 0.00 0.00 61 1015.5
20260504013535 48 259 0.0 0.0 0.00 0.00 0.00 63 1015.4
20260504013032 49 260 0.0 0.0 0.00 0.00 0.00 61 1015.5
20260504012530 49 259 0.0 0.0 0.00 0.00 0.00 62 1015.4
20260504012027 49 251 0.0 0.0 0.00 0.00 0.00 61 1015.5
20260504011524 49 256 0.0 0.0 0.00 0.00 0.00 59 1015.2
20260504011020 50 255 0.0 0.0 0.00 0.00 0.00 58 1015.1
20260504010516 50 257 0.0 0.0 0.00 0.00 0.00 59 1015.0
20260504010012 50 257 0.0 0.0 0.00 0.00 0.00 58 1015.0
20260504005509 50 252 0.0 0.0 0.00 0.00 0.00 56 1015.2
20260504005006 50 255 0.0 0.0 0.00 0.00 0.00 57 1015.0
20260504004504 50 257 0.0 0.0 0.00 0.00 0.00 56 1015.0
20260504004001 50 257 0.0 0.0 0.00 0.00 0.00 56 1015.1
20260504003456 50 259 0.0 0.0 0.00 0.00 0.00 60 1015.0
20260504002954 51 259 0.0 0.0 0.00 0.00 0.00 57 1015.1
20260504002451 51 254 0.0 0.0 0.00 0.00 0.00 56 1014.7
20260504001948 51 255 0.0 0.0 0.00 0.00 0.00 54 1014.8
20260504001445 52 257 0.0 0.0 0.00 0.00 0.00 54 1014.3
20260504000942 52 258 0.0 0.0 0.00 0.00 0.00 53 1014.6
20260504000439 52 257 0.0 0.0 0.00 0.00 0.00 54 1014.3
20260503235936 53 258 0.0 0.0 0.00 0.00 0.00 53 1014.4
20260503235434 53 257 0.0 0.0 0.00 0.00 0.00 52 1014.5
20260503234931 54 258 0.0 0.0 0.00 0.00 0.00 50 1014.4
20260503234429 54 257 0.0 0.0 0.00 0.00 0.00 48 1014.4
20260503233927 55 254 0.0 0.0 0.00 0.00 0.00 48 1014.3
20260503233423 55 251 0.0 0.0 0.00 0.00 0.00 47 1014.2
20260503232919 55 257 0.0 0.0 0.00 0.00 0.00 47 1014.4
20260503232416 56 255 0.0 0.0 0.00 0.00 0.00 45 1014.3
20260503231914 56 245 0.0 0.0 0.00 0.00 0.00 44 1014.3
20260503231411 56 264 0.0 0.0 0.00 0.00 0.00 44 1014.4
20260503230908 57 346 0.0 0.9 0.00 0.00 0.00 43 1014.4
20260503230404 57 275 0.0 0.0 0.00 0.00 0.00 42 1014.2
20260503225902 58 341 0.9 1.7 0.00 0.00 0.00 41 1014.3
20260503225358 58 293 0.0 0.9 0.00 0.00 0.00 40 1014.3
20260503224854 58 258 0.9 1.7 0.00 0.00 0.00 40 1014.2
20260503224351 58 32 0.9 0.9 0.00 0.00 0.00 38 1014.5
20260503223849 58 87 0.0 0.9 0.00 0.00 0.00 38 1014.2
20260503223347 58 354 2.6 2.6 0.00 0.00 0.00 39 1014.3
20260503222842 58 279 0.9 0.9 0.00 0.00 0.00 38 1014.4
20260503222341 58 340 1.7 1.7 0.00 0.00 0.00 37 1014.3
20260503221838 58 308 1.7 1.7 0.00 0.00 0.00 40 1014.3
20260503221337 58 17 1.7 2.6 0.00 0.00 0.00 40 1014.3
20260503220832 58 350 1.7 1.7 0.00 0.00 0.00 41 1014.3
20260503220329 59 235 2.6 2.6 0.00 0.00 0.00 41 1014.3
20260503215826 59 277 1.7 2.6 0.00 0.00 0.00 39 1014.3
20260503215324 59 266 2.6 2.6 0.00 0.00 0.00 39 1014.2
20260503214821 59 272 2.6 4.3 0.00 0.00 0.00 40 1014.4